�v������,���r���O(���x),�����t���O,���r���O(���x),�����t���O,��1(���x),�����t���O,�������x,�����t���O
3/1/2003 0:00,22.4,1,48.6,1,12.1,1,12.3,1
3/1/2003 0:15,22.9,1,47.2,1,12.2,1,12.3,1
3/1/2003 0:30,22.9,1,47.2,1,12.3,1,12.4,1
3/1/2003 0:45,23.1,1,47.1,1,12.3,1,12.5,1
3/1/2003 1:00,22.6,1,48.1,1,12.3,1,12.5,1
3/1/2003 1:15,22.7,1,48.5,1,12.2,1,12.6,1
3/1/2003 1:30,22.8,1,49.1,1,12.3,1,12.6,1
3/1/2003 1:45,22.6,1,50.2,1,12.4,1,12.7,1
3/1/2003 2:00,22.5,1,51.2,1,12.5,1,12.8,1
3/1/2003 2:15,23.7,1,49.7,1,12.6,1,12.6,1
3/1/2003 2:30,23.1,1,50.6,1,12.7,1,11.8,1
3/1/2003 2:45,22.3,1,51.6,1,12.8,1,11.7,1
3/1/2003 3:00,21.8,1,51.9,1,12.9,1,11.8,1
3/1/2003 3:15,21.3,1,51.2,1,13,1,11.9,1
3/1/2003 3:30,21,1,51.1,1,13,1,12,1
3/1/2003 3:45,20.7,1,51.2,1,13,1,12.1,1
3/1/2003 4:00,20.4,1,51.3,1,13.1,1,12.2,1
3/1/2003 4:15,20.2,1,51.6,1,13.1,1,12.2,1
3/1/2003 4:30,20,1,52,1,13.1,1,12.3,1
3/1/2003 4:45,19.9,1,52.3,1,13,1,12.4,1
3/1/2003 5:00,19.8,1,52.7,1,12.9,1,12.4,1
3/1/2003 5:15,19.7,1,53,1,12.8,1,12.5,1
3/1/2003 5:30,19.6,1,53.2,1,12.7,1,12.6,1
3/1/2003 5:45,19.5,1,53.4,1,12.7,1,12.7,1
3/1/2003 6:00,19.4,1,53.5,1,12.7,1,12.7,1
3/1/2003 6:15,19.3,1,53.5,1,12.7,1,12.8,1
3/1/2003 6:30,19.2,1,53.6,1,12.8,1,12.9,1
3/1/2003 6:45,19.2,1,53.7,1,12.7,1,12.9,1
3/1/2003 7:00,19.1,1,53.9,1,12.7,1,13,1
3/1/2003 7:15,19.8,1,54.7,1,12.7,1,13.1,1
3/1/2003 7:30,21.9,1,54.7,1,12.7,1,12.2,1
3/1/2003 7:45,23,1,54.9,1,12.6,1,12.3,1
3/1/2003 8:00,22.7,1,55.7,1,12.5,1,12.4,1
3/1/2003 8:15,22.6,1,55.8,1,12.5,1,12.1,1
3/1/2003 8:30,23.6,1,54.1,1,12.3,1,11.1,1
3/1/2003 8:45,22.4,1,58.9,1,12.2,1,9.8,1
3/1/2003 9:00,21.6,1,55.2,1,12.4,1,10.1,1
3/1/2003 9:15,21.4,1,56.4,1,12.6,1,10.1,1
3/1/2003 9:30,22.9,1,55.6,1,12.9,1,10.2,1
3/1/2003 9:45,23.8,1,54.5,1,13.1,1,10,1
3/1/2003 10:00,23.7,1,55.9,1,13.3,1,10,1
3/1/2003 10:15,23.3,1,56.9,1,13.4,1,10.4,1
3/1/2003 10:30,23.1,1,58.1,1,13.5,1,10.5,1
3/1/2003 10:45,23.7,1,58,1,13.5,1,10.6,1
3/1/2003 11:00,24.1,1,57.4,1,13.3,1,11.2,1
3/1/2003 11:15,24.5,1,57.4,1,13.2,1,11,1
3/1/2003 11:30,23.8,1,59.6,1,13,1,11.1,1
3/1/2003 11:45,24.2,1,59.5,1,12.8,1,11.2,1
3/1/2003 12:00,23.7,1,59.1,1,12.6,1,11.4,1
3/1/2003 12:15,24.3,1,56.8,1,12.5,1,11.2,1
3/1/2003 12:30,23.2,1,58.4,1,12.5,1,11.2,1
3/1/2003 12:45,22.7,1,58.8,1,12.4,1,11.3,1
3/1/2003 13:00,24.4,1,56.7,1,12.4,1,11.4,1
3/1/2003 13:15,25.6,1,56.2,1,12.4,1,11.5,1
3/1/2003 13:30,24.5,1,57,1,12.4,1,11.6,1
3/1/2003 13:45,24.1,1,55.7,1,12.4,1,11.7,1
3/1/2003 14:00,23.4,1,55.4,1,12.4,1,11.7,1
3/1/2003 14:15,22.6,1,55,1,12.4,1,10.4,1
3/1/2003 14:30,22.1,1,55.5,1,12.4,1,10.6,1
3/1/2003 14:45,21.7,1,55.8,1,12.5,1,10.7,1
3/1/2003 15:00,21.4,1,56.1,1,12.5,1,10.8,1
3/1/2003 15:15,21.1,1,56.2,1,12.5,1,10.9,1
3/1/2003 15:30,20.9,1,56.4,1,12.5,1,11,1
3/1/2003 15:45,20.6,1,56.6,1,12.5,1,11.1,1
3/1/2003 16:00,20.4,1,56.7,1,12.4,1,11.2,1
3/1/2003 16:15,20.2,1,56.8,1,12.3,1,11.3,1
3/1/2003 16:30,20.1,1,56.9,1,12.3,1,11.4,1
3/1/2003 16:45,19.9,1,57,1,12.2,1,12.3,1
3/1/2003 17:00,20,1,57.3,1,12.3,1,12.4,1
3/1/2003 17:15,19.9,1,58,1,12.8,1,10.5,1
3/1/2003 17:30,20.1,1,59.5,1,12.9,1,10.7,1
3/1/2003 17:45,20.2,1,59.8,1,12.7,1,10.8,1
3/1/2003 18:00,22.8,1,57.8,1,12.5,1,10.9,1
3/1/2003 18:15,22.7,1,58.8,1,12.2,1,11,1
3/1/2003 18:30,21.7,1,60.1,1,11.8,1,11.7,1
3/1/2003 18:45,21.3,1,60.1,1,11.4,1,11.8,1
3/1/2003 19:00,21.2,1,62.2,1,11.2,1,10.9,1
3/1/2003 19:15,21.9,1,62.5,1,11.1,1,11,1
3/1/2003 19:30,21.5,1,64.3,1,11.2,1,11.1,1
3/1/2003 19:45,21.4,1,65.4,1,11.3,1,11.2,1
3/1/2003 20:00,21.2,1,65.2,1,11.3,1,11.1,1
3/1/2003 20:15,21.2,1,65.4,1,11.4,1,10.6,1
3/1/2003 20:30,21.1,1,64.5,1,11.4,1,10.8,1
3/1/2003 20:45,22.9,1,60.4,1,11.5,1,11.2,1
3/1/2003 21:00,23.4,1,60.8,1,11.8,1,10.8,1
3/1/2003 21:15,22.2,1,63.4,1,12.3,1,10.9,1
3/1/2003 21:30,21.8,1,63.1,1,12.5,1,11,1
3/1/2003 21:45,22.4,1,61.6,1,12.5,1,11.1,1
3/1/2003 22:00,23.6,1,58.6,1,12.5,1,11.2,1
3/1/2003 22:15,22.9,1,58.4,1,12.4,1,11.6,1
3/1/2003 22:30,23.9,1,56.6,1,12.4,1,11.7,1
3/1/2003 22:45,24.6,1,55.5,1,12.3,1,11.8,1
3/1/2003 23:00,24.9,1,54.2,1,12.2,1,11.8,1
3/1/2003 23:15,24.6,1,54.1,1,12.2,1,11.9,1
3/1/2003 23:30,24.9,1,53.7,1,12.4,1,12.3,1
3/1/2003 23:45,25.1,1,53.3,1,12.5,1,12.3,1
3/2/2003 0:00,25.4,1,53.1,1,12.5,1,12,1
3/2/2003 0:15,24.2,1,54.4,1,12.5,1,12.1,1
3/2/2003 0:30,23.9,1,55,1,12.6,1,12.2,1
3/2/2003 0:45,23.4,1,55.4,1,12.7,1,12.3,1
3/2/2003 1:00,22.9,1,55.4,1,12.8,1,12.3,1
3/2/2003 1:15,22.5,1,55.8,1,12.9,1,12.4,1
3/2/2003 1:30,22.2,1,56.1,1,12.8,1,12.5,1
3/2/2003 1:45,21.9,1,56.2,1,12.8,1,12.7,1
3/2/2003 2:00,23.2,1,54.4,1,12.9,1,12.8,1
3/2/2003 2:15,23.7,1,54,1,12.9,1,12.9,1
3/2/2003 2:30,23.1,1,55.4,1,12.9,1,12.9,1
3/2/2003 2:45,23,1,55.5,1,12.9,1,13.2,1
3/2/2003 3:00,22.8,1,55.8,1,12.9,1,13.2,1
3/2/2003 3:15,22.8,1,55.9,1,12.9,1,13.2,1
3/2/2003 3:30,22.7,1,56.1,1,12.9,1,13.3,1
3/2/2003 3:45,22.2,1,55,1,12.9,1,13.4,1
3/2/2003 4:00,21.6,1,55.7,1,13,1,13.4,1
3/2/2003 4:15,21.2,1,55.3,1,13.2,1,13.5,1
3/2/2003 4:30,20.8,1,55.5,1,13.3,1,13.5,1
3/2/2003 4:45,20.5,1,55.8,1,13.3,1,13.6,1
3/2/2003 5:00,20.2,1,56.2,1,13.2,1,13.7,1
3/2/2003 5:15,20,1,56.6,1,13.1,1,13.7,1
3/2/2003 5:30,19.9,1,56.7,1,13.1,1,13.8,1
3/2/2003 5:45,19.7,1,57,1,13.1,1,13.8,1
3/2/2003 6:00,19.6,1,56.9,1,13.1,1,13.9,1
3/2/2003 6:15,19.5,1,57.1,1,13,1,14,1
3/2/2003 6:30,19.4,1,57.1,1,13,1,14,1
3/2/2003 6:45,19.3,1,57.4,1,13,1,14.1,1
3/2/2003 7:00,19.2,1,57.4,1,13,1,14.1,1
3/2/2003 7:15,19.5,1,58.5,1,13.1,1,14.2,1
3/2/2003 7:30,22.2,1,56.6,1,13.2,1,13.7,1
3/2/2003 7:45,23.2,1,56.8,1,13.2,1,12.3,1
3/2/2003 8:00,23,1,58.1,1,13.2,1,12.5,1
3/2/2003 8:15,22.5,1,56.1,1,13.2,1,12.3,1
3/2/2003 8:30,23.2,1,54.4,1,13.3,1,11.1,1
3/2/2003 8:45,23.4,1,52.7,1,13.4,1,11.2,1
3/2/2003 9:00,21.8,1,55.6,1,13.4,1,11.4,1
3/2/2003 9:15,21.2,1,55.4,1,13.4,1,11.6,1
3/2/2003 9:30,21.1,1,58.3,1,13.7,1,11.7,1
3/2/2003 9:45,20.8,1,57.6,1,13.8,1,11.8,1
3/2/2003 10:00,20.7,1,59,1,13.9,1,11.8,1
3/2/2003 10:15,20.6,1,59.8,1,13.9,1,10.7,1
3/2/2003 10:30,20.6,1,60.7,1,13.9,1,10.4,1
3/2/2003 10:45,20.6,1,61.5,1,13.9,1,11.3,1
3/2/2003 11:00,20.7,1,60.7,1,13.8,1,10.9,1
3/2/2003 11:15,20.7,1,58.6,1,13.9,1,11,1
3/2/2003 11:30,20.8,1,57.9,1,14.1,1,11.1,1
3/2/2003 11:45,20.9,1,57.8,1,14.1,1,11.2,1
3/2/2003 12:00,21,1,57.6,1,14.2,1,11.3,1
3/2/2003 12:15,21.1,1,56.9,1,14.2,1,11.4,1
3/2/2003 12:30,21.2,1,56.2,1,14.2,1,11.5,1
3/2/2003 12:45,21.3,1,55.6,1,14.2,1,11.5,1
3/2/2003 13:00,21.4,1,54.9,1,14.2,1,11.6,1
3/2/2003 13:15,21.5,1,54.2,1,14.3,1,11.7,1
3/2/2003 13:30,21.5,1,51.6,1,14.3,1,13.1,1
3/2/2003 13:45,21.7,1,48.5,1,14.2,1,11.4,1
3/2/2003 14:00,22.3,1,51.3,1,14.3,1,11.6,1
3/2/2003 14:15,22.5,1,52.7,1,14.3,1,11.7,1
3/2/2003 14:30,22.5,1,52.8,1,14.3,1,11.8,1
3/2/2003 14:45,22.4,1,52,1,14.4,1,11.5,1
3/2/2003 15:00,22.3,1,50.9,1,14.4,1,11.6,1
3/2/2003 15:15,22.4,1,51.9,1,14.3,1,12.1,1
3/2/2003 15:30,22.4,1,52.6,1,14.4,1,12.1,1
3/2/2003 15:45,22.4,1,53.6,1,14.4,1,12.2,1
3/2/2003 16:00,22.3,1,54.2,1,14.4,1,12.3,1
3/2/2003 16:15,22.1,1,53.4,1,14.3,1,12.3,1
3/2/2003 16:30,21.8,1,53.4,1,14.2,1,12.4,1
3/2/2003 16:45,21.4,1,52.8,1,14.5,1,12.5,1
3/2/2003 17:00,21.3,1,54.5,1,14.4,1,12.3,1
3/2/2003 17:15,21.2,1,57.1,1,14.3,1,12.4,1
3/2/2003 17:30,21,1,57.2,1,14.1,1,12.5,1
3/2/2003 17:45,21.2,1,62.3,1,13.9,1,12.5,1
3/2/2003 18:00,21.4,1,61.8,1,13.8,1,11.8,1
3/2/2003 18:15,21.5,1,59.6,1,13.6,1,11.6,1
3/2/2003 18:30,21.4,1,60.4,1,13.5,1,11.7,1
3/2/2003 18:45,21.4,1,60.6,1,13.5,1,11.5,1
3/2/2003 19:00,21.2,1,60.3,1,13.4,1,11.6,1
3/2/2003 19:15,21.4,1,65.5,1,13.4,1,11.7,1
3/2/2003 19:30,21.5,1,63.9,1,13.1,1,11.8,1
3/2/2003 19:45,21.3,1,59.7,1,12.9,1,11.9,1
3/2/2003 20:00,21.3,1,60.7,1,12.8,1,12,1
3/2/2003 20:15,21.2,1,59.9,1,12.9,1,12,1
3/2/2003 20:30,21.2,1,60.3,1,13,1,12.1,1
3/2/2003 20:45,21.1,1,59.5,1,13.1,1,11.1,1
3/2/2003 21:00,21.4,1,58,1,13.5,1,11.2,1
3/2/2003 21:15,22,1,56.4,1,13.6,1,11.4,1
3/2/2003 21:30,22.4,1,55.2,1,13.7,1,11.9,1
3/2/2003 21:45,21.7,1,56.6,1,13.7,1,11.9,1
3/2/2003 22:00,21.4,1,56,1,13.7,1,12,1
3/2/2003 22:15,22.3,1,53.9,1,13.7,1,11.9,1
3/2/2003 22:30,21.7,1,54.7,1,13.7,1,12,1
3/2/2003 22:45,21.5,1,54.7,1,13.7,1,12.1,1
3/2/2003 23:00,21.4,1,54.5,1,13.7,1,12.1,1
3/2/2003 23:15,21.3,1,54.3,1,13.7,1,12.2,1
3/2/2003 23:30,21.2,1,54,1,13.7,1,12.3,1
3/2/2003 23:45,21.2,1,53.7,1,13.7,1,12.4,1
3/3/2003 0:00,21.1,1,54.1,1,13.7,1,11.7,1
3/3/2003 0:15,21,1,54.4,1,13.8,1,11.8,1
3/3/2003 0:30,21,1,54.7,1,13.9,1,11.9,1
3/3/2003 0:45,22.7,1,52.7,1,13.9,1,12.5,1
3/3/2003 1:00,21.5,1,54.8,1,14,1,12.5,1
3/3/2003 1:15,20.9,1,55.5,1,14,1,12.3,1
3/3/2003 1:30,20.6,1,55.9,1,14,1,12.3,1
3/3/2003 1:45,20.3,1,56.2,1,14.1,1,12.4,1
3/3/2003 2:00,20.1,1,56.6,1,14.1,1,12.5,1
3/3/2003 2:15,19.9,1,56.9,1,14.2,1,12.6,1
3/3/2003 2:30,19.8,1,57.3,1,14.2,1,12.6,1
3/3/2003 2:45,19.7,1,57.5,1,14.2,1,12.7,1
3/3/2003 3:00,19.6,1,57.7,1,14.3,1,12.8,1
3/3/2003 3:15,19.5,1,58,1,14.2,1,12.8,1
3/3/2003 3:30,19.4,1,58.1,1,14.2,1,12.9,1
3/3/2003 3:45,19.3,1,58.3,1,14.1,1,13,1
3/3/2003 4:00,19.3,1,58.5,1,14.1,1,13.1,1
3/3/2003 4:15,19.2,1,58.6,1,14.2,1,13.1,1
3/3/2003 4:30,19.1,1,58.6,1,14.2,1,13.2,1
3/3/2003 4:45,19.1,1,58.7,1,14.2,1,13.3,1
3/3/2003 5:00,19.1,1,58.9,1,14,1,13.4,1
3/3/2003 5:15,19,1,59,1,14,1,13.4,1
3/3/2003 5:30,18.9,1,59,1,14,1,13.5,1
3/3/2003 5:45,18.9,1,59.1,1,13.9,1,13.6,1
3/3/2003 6:00,18.9,1,59.2,1,14,1,13.6,1
3/3/2003 6:15,18.9,1,60.1,1,14,1,13.8,1
3/3/2003 6:30,18.9,1,60.6,1,13.9,1,13.9,1
3/3/2003 6:45,18.9,1,60.5,1,13.9,1,13.9,1
3/3/2003 7:00,18.9,1,60.4,1,14,1,13.9,1
3/3/2003 7:15,21,1,58.6,1,14,1,12.6,1
3/3/2003 7:30,22.8,1,56.8,1,13.9,1,10.9,1
3/3/2003 7:45,23.6,1,57.1,1,14,1,10.4,1
3/3/2003 8:00,21.9,1,57.3,1,14,1,10.6,1
3/3/2003 8:15,21,1,59.1,1,14.4,1,10.8,1
3/3/2003 8:30,20.5,1,59.3,1,14.7,1,10.9,1
3/3/2003 8:45,20.3,1,59.9,1,14.9,1,11.8,1
3/3/2003 9:00,20.1,1,60.6,1,15.3,1,10.1,1
3/3/2003 9:15,19.9,1,61.3,1,15.8,1,10.3,1
3/3/2003 9:30,19.8,1,60.5,1,16.1,1,10.4,1
3/3/2003 9:45,19.9,1,60.8,1,16.3,1,10.5,1
3/3/2003 10:00,19.9,1,60,1,16.6,1,10.6,1
3/3/2003 10:15,19.9,1,60.2,1,16.6,1,10.7,1
3/3/2003 10:30,19.9,1,60.5,1,16.9,1,10.8,1
3/3/2003 10:45,19.8,1,60.6,1,17,1,10.9,1
3/3/2003 11:00,19.7,1,60.7,1,17.1,1,11,1
3/3/2003 11:15,19.6,1,60.8,1,17.2,1,11.2,1
3/3/2003 11:30,19.4,1,60.7,1,17.1,1,11.3,1
3/3/2003 11:45,19.3,1,60.8,1,17,1,13.1,1
3/3/2003 12:00,19.2,1,61,1,16.8,1,13,1
3/3/2003 12:15,19.2,1,64.9,1,16.8,1,12.9,1
3/3/2003 12:30,19.5,1,64.6,1,17.1,1,12.9,1
3/3/2003 12:45,19.5,1,64.1,1,17.2,1,12.9,1
3/3/2003 13:00,19.6,1,63.6,1,17,1,13,1
3/3/2003 13:15,19.5,1,63.1,1,16.8,1,13.1,1
3/3/2003 13:30,19.6,1,63.2,1,16.4,1,13.1,1
3/3/2003 13:45,19.7,1,64.1,1,16.1,1,13.2,1
3/3/2003 14:00,19.7,1,64.2,1,15.9,1,14.1,1
3/3/2003 14:15,19.9,1,64.6,1,15.7,1,13.5,1
3/3/2003 14:30,19.9,1,65.1,1,15.5,1,12.6,1
3/3/2003 14:45,19.9,1,65.8,1,15.6,1,12.6,1
3/3/2003 15:00,19.8,1,65.2,1,15.7,1,12.7,1
3/3/2003 15:15,19.6,1,64.7,1,15.9,1,12.8,1
3/3/2003 15:30,19.4,1,64.6,1,15.9,1,12.9,1
3/3/2003 15:45,19.3,1,64.6,1,15.9,1,12.9,1
3/3/2003 16:00,19.1,1,64.7,1,15.9,1,13,1
3/3/2003 16:15,19.1,1,64.7,1,15.9,1,13.1,1
3/3/2003 16:30,19,1,64.8,1,15.9,1,13.1,1
3/3/2003 16:45,18.9,1,64.9,1,15.9,1,13.2,1
3/3/2003 17:00,18.8,1,65.1,1,16,1,13.3,1
3/3/2003 17:15,18.8,1,66.1,1,16,1,13.3,1
3/3/2003 17:30,18.8,1,67,1,16.1,1,13.4,1
3/3/2003 17:45,18.9,1,67,1,16.1,1,13.8,1
3/3/2003 18:00,19.1,1,66.5,1,15.8,1,13.8,1
3/3/2003 18:15,19.3,1,66.4,1,15.3,1,13.8,1
3/3/2003 18:30,19.4,1,65.9,1,14.9,1,13.9,1
3/3/2003 18:45,20.9,1,63.6,1,14.7,1,13.9,1
3/3/2003 19:00,21,1,63.8,1,14.6,1,12.3,1
3/3/2003 19:15,20.2,1,66.5,1,14.5,1,12.4,1
3/3/2003 19:30,19.8,1,65.7,1,14.4,1,10.8,1
3/3/2003 19:45,19.6,1,65.7,1,14.4,1,11,1
3/3/2003 20:00,19.5,1,65.6,1,14.4,1,11.1,1
3/3/2003 20:15,19.4,1,65.6,1,14.4,1,11.2,1
3/3/2003 20:30,20.9,1,63.6,1,14.4,1,11.3,1
3/3/2003 20:45,22.3,1,62.3,1,14.4,1,11.1,1
3/3/2003 21:00,23.2,1,62.7,1,14.4,1,11.2,1
3/3/2003 21:15,23.5,1,62.3,1,14.8,1,11.2,1
3/3/2003 21:30,22.3,1,64.2,1,15.3,1,11.2,1
3/3/2003 21:45,21.5,1,64.2,1,15.2,1,11.3,1
3/3/2003 22:00,21.1,1,64.8,1,15.1,1,11.4,1
3/3/2003 22:15,20.9,1,65,1,15.1,1,11.5,1
3/3/2003 22:30,20.7,1,65,1,15.2,1,11.6,1
3/3/2003 22:45,20.6,1,65.1,1,15.3,1,11.7,1
3/3/2003 23:00,20.5,1,65,1,15.3,1,11.8,1
3/3/2003 23:15,20.4,1,64.9,1,15.3,1,11.9,1
3/3/2003 23:30,20.2,1,64.5,1,15.1,1,12,1
3/3/2003 23:45,20,1,64.3,1,14.9,1,12.1,1
3/4/2003 0:00,19.8,1,64.4,1,14.8,1,12.2,1
3/4/2003 0:15,19.7,1,64.4,1,14.6,1,12.3,1
3/4/2003 0:30,19.6,1,64.4,1,14.5,1,12.3,1
3/4/2003 0:45,19.4,1,64.2,1,14.5,1,12.4,1
3/4/2003 1:00,19.4,1,63.9,1,14.4,1,12.5,1
3/4/2003 1:15,19.2,1,63,1,14.3,1,12.6,1
3/4/2003 1:30,19.2,1,62.9,1,14.1,1,12.7,1
3/4/2003 1:45,19.1,1,62.8,1,14,1,12.8,1
3/4/2003 2:00,19,1,62.7,1,14,1,12.9,1
3/4/2003 2:15,18.9,1,62.7,1,13.9,1,12.9,1
3/4/2003 2:30,18.9,1,62.6,1,14,1,13.4,1
3/4/2003 2:45,18.8,1,62.5,1,13.9,1,13.5,1
3/4/2003 3:00,18.8,1,62.2,1,13.9,1,13.5,1
3/4/2003 3:15,18.7,1,61.9,1,13.9,1,13.6,1
3/4/2003 3:30,18.7,1,61.8,1,13.8,1,13.6,1
3/4/2003 3:45,18.6,1,61.7,1,13.7,1,13.7,1
3/4/2003 4:00,18.6,1,61.9,1,13.6,1,13.7,1
3/4/2003 4:15,18.6,1,61.6,1,13.5,1,13.8,1
3/4/2003 4:30,18.5,1,61.4,1,13.4,1,13.8,1
3/4/2003 4:45,18.5,1,60.8,1,13.4,1,13.9,1
3/4/2003 5:00,18.4,1,61.1,1,13.3,1,13.9,1
3/4/2003 5:15,18.4,1,61.1,1,13.2,1,14,1
3/4/2003 5:30,18.3,1,61.2,1,13.3,1,14.1,1
3/4/2003 5:45,18.3,1,61.2,1,13.2,1,14.1,1
3/4/2003 6:00,18.3,1,61.1,1,13.3,1,14.2,1
3/4/2003 6:15,18.2,1,61.1,1,13.4,1,14.2,1
3/4/2003 6:30,18.2,1,61.1,1,13.4,1,13.2,1
3/4/2003 6:45,18.1,1,61.1,1,13.4,1,13.3,1
3/4/2003 7:00,18.1,1,61,1,13.2,1,13.3,1
3/4/2003 7:15,19.5,1,59.8,1,13.2,1,11.8,1
3/4/2003 7:30,21.7,1,57.4,1,13.1,1,10.1,1
3/4/2003 7:45,22.6,1,56.5,1,13,1,9.8,1
3/4/2003 8:00,20.3,1,57.3,1,13,1,10,1
3/4/2003 8:15,19.7,1,58.4,1,12.9,1,10.1,1
3/4/2003 8:30,19.5,1,59.6,1,12.6,1,10.3,1
3/4/2003 8:45,19.4,1,59.9,1,12.2,1,9.9,1
3/4/2003 9:00,19.2,1,59.8,1,12.2,1,10.7,1
3/4/2003 9:15,19,1,58.9,1,12.3,1,10.5,1
3/4/2003 9:30,18.9,1,58.9,1,12.1,1,10.7,1
3/4/2003 9:45,18.9,1,60.1,1,12.1,1,10.5,1
3/4/2003 10:00,18.7,1,54.8,1,12.1,1,11.4,1
3/4/2003 10:15,18.8,1,54.7,1,12.2,1,11.5,1
3/4/2003 10:30,19,1,56.5,1,12.5,1,11.5,1
3/4/2003 10:45,19.1,1,58,1,12.7,1,11.6,1
3/4/2003 11:00,19.2,1,58.6,1,12.8,1,11.7,1
3/4/2003 11:15,19.4,1,58.4,1,12.9,1,11.6,1
3/4/2003 11:30,19.8,1,57.8,1,13.1,1,11,1
3/4/2003 11:45,19.8,1,57.1,1,13.6,1,11.2,1
3/4/2003 12:00,20,1,57.8,1,13.5,1,11.2,1
3/4/2003 12:15,20.2,1,57.8,1,13.5,1,11.3,1
3/4/2003 12:30,20.4,1,56.9,1,13.2,1,11.4,1
3/4/2003 12:45,20.5,1,56,1,12.9,1,11.5,1
3/4/2003 13:00,20.7,1,55.1,1,12.8,1,11.6,1
3/4/2003 13:15,20.9,1,54.7,1,12.9,1,11.6,1
3/4/2003 13:30,21,1,53.9,1,12.9,1,11.7,1
3/4/2003 13:45,21.1,1,53.5,1,12.9,1,11.8,1
3/4/2003 14:00,21.1,1,51,1,12.8,1,11.9,1
3/4/2003 14:15,21.2,1,51,1,12.7,1,12.9,1
3/4/2003 14:30,21.3,1,51.3,1,12.7,1,11.9,1
3/4/2003 14:45,21.3,1,51,1,12.6,1,12,1
3/4/2003 15:00,21.2,1,50.9,1,12.4,1,11.9,1
3/4/2003 15:15,21.3,1,50.9,1,12.4,1,12,1
3/4/2003 15:30,21.1,1,50.3,1,12.5,1,12.6,1
3/4/2003 15:45,20.9,1,50.7,1,12.4,1,12.1,1
3/4/2003 16:00,20.5,1,48.4,1,11.8,1,12.1,1
3/4/2003 16:15,20.2,1,47.7,1,11.4,1,12.3,1
3/4/2003 16:30,21.5,1,44.9,1,11.1,1,12.3,1
3/4/2003 16:45,22.9,1,43.7,1,10.9,1,12.4,1
3/4/2003 17:00,22.8,1,46.8,1,11.1,1,12.4,1
3/4/2003 17:15,22.8,1,47.6,1,11.2,1,12.5,1
3/4/2003 17:30,22.5,1,49.2,1,11.2,1,11.9,1
3/4/2003 17:45,23.8,1,49.4,1,11.2,1,11.1,1
3/4/2003 18:00,24.2,1,50.1,1,11.6,1,11.3,1
3/4/2003 18:15,23.1,1,52.7,1,13.3,1,11.4,1
3/4/2003 18:30,22.4,1,55.9,1,13.5,1,11.5,1
3/4/2003 18:45,22,1,55.5,1,13.3,1,11.6,1
3/4/2003 19:00,21.7,1,56.1,1,13.3,1,11.7,1
3/4/2003 19:15,21.5,1,57.4,1,13.2,1,11.7,1
3/4/2003 19:30,21.3,1,56.5,1,13.1,1,11.8,1
3/4/2003 19:45,23.4,1,51.4,1,12.9,1,11.9,1
3/4/2003 20:00,23.9,1,52.7,1,12.8,1,10.9,1
3/4/2003 20:15,23,1,50.6,1,12.4,1,9.7,1
3/4/2003 20:30,22.2,1,52,1,11.8,1,9.9,1
3/4/2003 20:45,21.7,1,52.2,1,11.6,1,10,1
3/4/2003 21:00,21.4,1,51.9,1,11.5,1,10.1,1
3/4/2003 21:15,23.4,1,50.2,1,11.6,1,10.2,1
3/4/2003 21:30,23.4,1,50,1,11.5,1,10.3,1
3/4/2003 21:45,23.5,1,50.2,1,11.4,1,11.5,1
3/4/2003 22:00,23.1,1,50.9,1,11.2,1,11.6,1
3/4/2003 22:15,23.5,1,50.9,1,11.2,1,11.6,1
3/4/2003 22:30,23,1,52,1,11.2,1,11.7,1
3/4/2003 22:45,23.2,1,50.9,1,11.2,1,11.8,1
3/4/2003 23:00,23.9,1,50.5,1,11.2,1,11.8,1
3/4/2003 23:15,23.8,1,49.9,1,11.2,1,12.3,1
3/4/2003 23:30,23,1,51.2,1,11.2,1,12.1,1
3/4/2003 23:45,22.3,1,51.8,1,11.2,1,12.2,1
3/5/2003 0:00,21.6,1,50.9,1,11.3,1,11.9,1
3/5/2003 0:15,21.1,1,50.4,1,11.3,1,12,1
3/5/2003 0:30,20.6,1,49.9,1,11.3,1,12,1
3/5/2003 0:45,20.2,1,49.6,1,11.4,1,12.1,1
3/5/2003 1:00,19.9,1,49.5,1,11.3,1,12.2,1
3/5/2003 1:15,20.1,1,48.9,1,11.3,1,12.3,1
3/5/2003 1:30,22.6,1,48.5,1,11.4,1,12.3,1
3/5/2003 1:45,23.2,1,49.5,1,11.5,1,12.4,1
3/5/2003 2:00,21.7,1,51.9,1,11.5,1,12.5,1
3/5/2003 2:15,21,1,52.2,1,11.6,1,12.5,1
3/5/2003 2:30,20.5,1,51.9,1,11.6,1,12.6,1
3/5/2003 2:45,22.4,1,51.3,1,11.6,1,12.7,1
3/5/2003 3:00,23.6,1,51.3,1,11.8,1,12.8,1
3/5/2003 3:15,24.2,1,51.2,1,11.8,1,12.8,1
3/5/2003 3:30,24.7,1,51.4,1,11.9,1,12.9,1
3/5/2003 3:45,23.6,1,52.5,1,12,1,13,1
3/5/2003 4:00,22.5,1,53.9,1,12,1,13,1
3/5/2003 4:15,21.7,1,50.9,1,12,1,13.1,1
3/5/2003 4:30,21.1,1,51.4,1,11.9,1,13.2,1
3/5/2003 4:45,20.6,1,51.3,1,11.9,1,13.2,1
3/5/2003 5:00,20.2,1,51,1,12,1,13.3,1
3/5/2003 5:15,19.9,1,51,1,12,1,13.4,1
3/5/2003 5:30,19.7,1,51.2,1,12,1,13.4,1
3/5/2003 5:45,19.5,1,51.3,1,12.1,1,13.5,1
3/5/2003 6:00,19.3,1,51.3,1,12.2,1,13.6,1
3/5/2003 6:15,19.2,1,51.7,1,12.2,1,13.6,1
3/5/2003 6:30,19,1,52.2,1,12.3,1,13.7,1
3/5/2003 6:45,18.9,1,52,1,12.3,1,13.8,1
3/5/2003 7:00,18.8,1,52.3,1,12.4,1,13.8,1
3/5/2003 7:15,18.7,1,52.4,1,12.4,1,13.9,1
3/5/2003 7:30,21.1,1,53,1,12.4,1,10.5,1
3/5/2003 7:45,22.4,1,51,1,11.6,1,10,1
3/5/2003 8:00,20.7,1,53.4,1,11.2,1,9.8,1
3/5/2003 8:15,21.8,1,53.3,1,11.2,1,10.1,1
3/5/2003 8:30,23,1,51.7,1,11.3,1,10,1
3/5/2003 8:45,23.3,1,52.2,1,11.4,1,10,1
3/5/2003 9:00,21.3,1,51.7,1,11.6,1,10.1,1
3/5/2003 9:15,20.4,1,51.9,1,11.7,1,9.8,1
3/5/2003 9:30,20.1,1,54,1,10.8,1,9.8,1
3/5/2003 9:45,19.8,1,49.3,1,10.7,1,9.9,1
3/5/2003 10:00,19.7,1,51.5,1,10.4,1,10,1
3/5/2003 10:15,19.9,1,53.4,1,10.2,1,10.1,1
3/5/2003 10:30,19.8,1,52.6,1,10.3,1,10.9,1
3/5/2003 10:45,19.9,1,53.4,1,10.5,1,10.4,1
3/5/2003 11:00,19.8,1,53.3,1,10.6,1,10.7,1
3/5/2003 11:15,20,1,53.9,1,10.7,1,11.3,1
3/5/2003 11:30,22.9,1,51,1,10.7,1,11.4,1
3/5/2003 11:45,23,1,51.9,1,10.8,1,11.4,1
3/5/2003 12:00,23.4,1,50.6,1,10.8,1,12.2,1
3/5/2003 12:15,22.7,1,52.6,1,11,1,11.9,1
3/5/2003 12:30,21.9,1,53.1,1,11.1,1,11.9,1
3/5/2003 12:45,21.8,1,53,1,11.3,1,12,1
3/5/2003 13:00,21.6,1,53,1,11.5,1,12.1,1
3/5/2003 13:15,21.4,1,53.7,1,11.5,1,12.3,1
3/5/2003 13:30,21.3,1,53.4,1,11.6,1,11.7,1
3/5/2003 13:45,21.2,1,53.6,1,11.8,1,11.8,1
3/5/2003 14:00,21.2,1,53.8,1,11.9,1,11.9,1
3/5/2003 14:15,21,1,52.7,1,12.1,1,12,1
3/5/2003 14:30,21,1,52.6,1,12.2,1,12.1,1
3/5/2003 14:45,21.2,1,51.8,1,12.4,1,12.7,1
3/5/2003 15:00,21.1,1,49.7,1,12.8,1,12.8,1
3/5/2003 15:15,21,1,48,1,13.1,1,12.1,1
3/5/2003 15:30,21,1,49.3,1,13,1,12.2,1
3/5/2003 15:45,20.9,1,47.4,1,12.9,1,12.3,1
3/5/2003 16:00,20.7,1,49.7,1,12.9,1,12.3,1
3/5/2003 16:15,20.6,1,51.1,1,12.9,1,12.4,1
3/5/2003 16:30,20.2,1,47.9,1,12.9,1,12.4,1
3/5/2003 16:45,20,1,48.9,1,12.9,1,12.5,1
3/5/2003 17:00,19.9,1,49.6,1,12.8,1,12.6,1
3/5/2003 17:15,19.8,1,49.9,1,12.8,1,12.6,1
3/5/2003 17:30,21.2,1,49.8,1,12.7,1,12.9,1
3/5/2003 17:45,22.5,1,44.8,1,12.4,1,10.2,1
3/5/2003 18:00,22.5,1,43.8,1,11.8,1,10.3,1
3/5/2003 18:15,22.7,1,43.7,1,11.4,1,10.5,1
3/5/2003 18:30,23.4,1,42.2,1,10.9,1,10.7,1
3/5/2003 18:45,22,1,44.8,1,10.7,1,10.8,1
3/5/2003 19:00,21.3,1,48.2,1,10.6,1,10.9,1
3/5/2003 19:15,20.9,1,48.9,1,10.7,1,11,1
3/5/2003 19:30,21.1,1,51.8,1,11.2,1,11.4,1
3/5/2003 19:45,23,1,52.7,1,11.5,1,10.6,1
3/5/2003 20:00,22.7,1,53.8,1,12,1,11.1,1
3/5/2003 20:15,22.5,1,54.2,1,12.5,1,10.7,1
3/5/2003 20:30,22.5,1,54.1,1,12.7,1,10.8,1
3/5/2003 20:45,22.5,1,53.7,1,12.9,1,10.9,1
3/5/2003 21:00,22.2,1,53.7,1,13,1,11.2,1
3/5/2003 21:15,22.1,1,53.9,1,13.1,1,11.3,1
3/5/2003 21:30,22.1,1,54.4,1,13.1,1,11.4,1
3/5/2003 21:45,22.2,1,54.3,1,13,1,11.5,1
3/5/2003 22:00,22.3,1,54.3,1,13,1,12,1
3/5/2003 22:15,22.3,1,53.8,1,12.9,1,10.8,1
3/5/2003 22:30,22.3,1,53.6,1,12.9,1,10.9,1
3/5/2003 22:45,21.7,1,54.7,1,12.9,1,11.1,1
3/5/2003 23:00,21.5,1,55,1,12.9,1,11.4,1
3/5/2003 23:15,23.2,1,53.1,1,12.9,1,11.5,1
3/5/2003 23:30,22.9,1,53.9,1,12.9,1,11.6,1
3/5/2003 23:45,22.7,1,54.1,1,12.9,1,11.6,1
3/6/2003 0:00,22.7,1,53.4,1,12.8,1,11.7,1
3/6/2003 0:15,23.7,1,51.4,1,12.8,1,11.3,1
3/6/2003 0:30,24.1,1,52,1,12.7,1,11.4,1
3/6/2003 0:45,24.4,1,52.3,1,12.7,1,11.5,1
3/6/2003 1:00,24.8,1,52.4,1,12.6,1,11.6,1
3/6/2003 1:15,25,1,52.5,1,12.6,1,11.7,1
3/6/2003 1:30,25.2,1,52.1,1,12.5,1,11.8,1
3/6/2003 1:45,24.6,1,52.7,1,12.5,1,12.6,1
3/6/2003 2:00,23.2,1,54.6,1,12.6,1,11.5,1
3/6/2003 2:15,22.5,1,54.9,1,12.5,1,11.6,1
3/6/2003 2:30,22,1,55.2,1,12.4,1,11.7,1
3/6/2003 2:45,21.6,1,55.2,1,12.4,1,11.8,1
3/6/2003 3:00,21.3,1,55.3,1,12.4,1,11.8,1
3/6/2003 3:15,20.9,1,55.4,1,12.5,1,11.9,1
3/6/2003 3:30,20.6,1,54.3,1,12.5,1,12,1
3/6/2003 3:45,20.4,1,54.6,1,12.6,1,12.1,1
3/6/2003 4:00,20.1,1,54.8,1,12.7,1,12.2,1
3/6/2003 4:15,19.9,1,55.1,1,12.8,1,12.2,1
3/6/2003 4:30,19.8,1,55.3,1,12.7,1,12.3,1
3/6/2003 4:45,19.7,1,55.5,1,12.7,1,12.4,1
3/6/2003 5:00,19.5,1,55.7,1,12.6,1,12.5,1
3/6/2003 5:15,19.4,1,55.8,1,12.6,1,12.5,1
3/6/2003 5:30,19.3,1,55.9,1,12.6,1,12.6,1
3/6/2003 5:45,19.2,1,55.9,1,12.6,1,12.7,1
3/6/2003 6:00,19.1,1,55.9,1,12.6,1,12.8,1
3/6/2003 6:15,19,1,56,1,12.6,1,12.8,1
3/6/2003 6:30,18.9,1,56.1,1,12.6,1,12.9,1
3/6/2003 6:45,18.9,1,56.1,1,12.7,1,13,1
3/6/2003 7:00,18.8,1,56.1,1,12.8,1,13,1
3/6/2003 7:15,20.9,1,56.4,1,12.8,1,12.4,1
3/6/2003 7:30,22.3,1,53.2,1,12.6,1,10.8,1
3/6/2003 7:45,23.3,1,53.9,1,12.4,1,11,1
3/6/2003 8:00,23.7,1,52.9,1,12.2,1,11.1,1
3/6/2003 8:15,23,1,53,1,12.1,1,9.9,1
3/6/2003 8:30,21.6,1,57.1,1,12.1,1,10.7,1
3/6/2003 8:45,21.1,1,59.7,1,12.2,1,10.8,1
3/6/2003 9:00,20.6,1,57.1,1,12.4,1,11.1,1
3/6/2003 9:15,20.1,1,56.6,1,12.9,1,11,1
3/6/2003 9:30,19.8,1,58,1,12.9,1,11.1,1
3/6/2003 9:45,19.8,1,57.8,1,12.3,1,11.2,1
3/6/2003 10:00,19.8,1,58.3,1,11.8,1,11.3,1
3/6/2003 10:15,19.6,1,57.4,1,11.5,1,11.6,1
3/6/2003 10:30,19.4,1,57.4,1,11.2,1,11.7,1
3/6/2003 10:45,21.3,1,54.4,1,11.1,1,11.8,1
3/6/2003 11:00,20.1,1,56.4,1,11.4,1,11.8,1
3/6/2003 11:15,19.5,1,53.7,1,12,1,12,1
3/6/2003 11:30,19.2,1,54.4,1,12.1,1,12,1
3/6/2003 11:45,19.2,1,55.4,1,12.3,1,12,1
3/6/2003 12:00,20.7,1,54.7,1,12.5,1,12.1,1
3/6/2003 12:15,21.2,1,56,1,12.6,1,12.2,1
3/6/2003 12:30,20.1,1,57.8,1,12.7,1,12.2,1
3/6/2003 12:45,19.8,1,58.3,1,12.6,1,12.1,1
3/6/2003 13:00,19.5,1,58.1,1,12.5,1,12.2,1
3/6/2003 13:15,19.2,1,55.4,1,12.6,1,11.7,1
3/6/2003 13:30,19,1,55.1,1,12.9,1,11.8,1
3/6/2003 13:45,18.9,1,55.7,1,13.3,1,11.9,1
3/6/2003 14:00,18.8,1,56.2,1,13.5,1,12,1
3/6/2003 14:15,18.8,1,56.3,1,13.8,1,12,1
3/6/2003 14:30,18.7,1,56.7,1,14,1,12.1,1
3/6/2003 14:45,18.6,1,57,1,14.1,1,12.2,1
3/6/2003 15:00,18.5,1,57.3,1,14.1,1,12.2,1
3/6/2003 15:15,18.4,1,57.5,1,14.1,1,12.3,1
3/6/2003 15:30,18.3,1,57.8,1,14,1,12.4,1
3/6/2003 15:45,18.2,1,57.9,1,14,1,12.4,1
3/6/2003 16:00,18.1,1,58,1,13.9,1,12.5,1
3/6/2003 16:15,18,1,58.3,1,13.9,1,12.6,1
3/6/2003 16:30,18,1,58.4,1,13.8,1,12.6,1
3/6/2003 16:45,17.9,1,58.6,1,13.7,1,12.7,1
3/6/2003 17:00,17.8,1,58.6,1,13.6,1,12.8,1
3/6/2003 17:15,17.8,1,58.7,1,13.6,1,12.8,1
3/6/2003 17:30,17.7,1,58.8,1,13.5,1,12.9,1
3/6/2003 17:45,17.6,1,58.8,1,13.5,1,13,1
3/6/2003 18:00,17.6,1,58.9,1,13.4,1,13,1
3/6/2003 18:15,17.5,1,59,1,13.4,1,13.1,1
3/6/2003 18:30,17.5,1,59,1,13.4,1,13.2,1
3/6/2003 18:45,17.4,1,59,1,13.3,1,13.2,1
3/6/2003 19:00,17.4,1,59.1,1,13.3,1,13.3,1
3/6/2003 19:15,17.4,1,59.1,1,13.4,1,13.3,1